Location: Chmeln�
(49.6483°N, 14.9871°E)
Time: 07:48:27
(UTC+00:00)

Cosmos 1898 Rocket - Pass Details

Date: 18 September 2020
Orbit: 753 x 784 km, 74.0° (Epoch: 27 October)

Event Time Altitude Azimuth Distance (km) Brightness Sun altitude
Rises 18:25:10 0° 215° (SW) 3,195 6.9 -13.4°
Reaches altitude 10° 18:27:34 10° 220° (SW) 2,274 6.2 -13.7°
Maximum altitude 18:32:37 56° 298° (WNW) 901 4.2 -14.5°
Drops below altitude 10° 18:37:44 10° 17° (NNE) 2,295 6.0 -15.3°
Sets 18:40:10 0° 22° (NNE) 3,228 6.7 -15.7°
